Location: ??????
(38.1303°N, 24.0039°E)
Time: 13:23:11
(UTC+00:00)

Cosmos 1408 Rocket - Pass Details

Date: 20 June 2021
Orbit: 600 x 632 km, 82.6° (Epoch: 03 August)

Event Time Altitude Azimuth Distance (km) Brightness Sun altitude
Exits shadow 01:23:30 18° 179° (S) 1,553 5.2 -15.6°
Maximum altitude 01:26:48 76° 95° (E) 654 3.7 -15.2°
Drops below altitude 10° 01:31:16 10° 11° (N) 2,020 7.1 -14.6°
Sets 01:33:31 0° 9° (N) 2,932 8.0 -14.3°
